Year,Month,Day,Hour,Minute,Value (Times are PST for temperature in C)
2018,02,19,00,00,-2.30
2018,02,19,00,01,-2.30
2018,02,19,00,02,-2.30
2018,02,19,00,03,-2.30
2018,02,19,00,04,-2.40
2018,02,19,00,05,-2.40
2018,02,19,00,06,-2.40
2018,02,19,00,07,-2.40
2018,02,19,00,08,-2.40
2018,02,19,00,09,-2.40
2018,02,19,00,10,-2.50
2018,02,19,00,11,-2.50
2018,02,19,00,12,-2.50
2018,02,19,00,13,-2.50
2018,02,19,00,14,-2.50
2018,02,19,00,15,-2.50
2018,02,19,00,16,-2.50
2018,02,19,00,17,-2.50
2018,02,19,00,18,-2.60
2018,02,19,00,19,-2.60
2018,02,19,00,20,-2.60
2018,02,19,00,21,-2.60
2018,02,19,00,22,-2.60
2018,02,19,00,23,-2.60
2018,02,19,00,24,-2.70
2018,02,19,00,25,-2.70
2018,02,19,00,26,-2.60
2018,02,19,00,27,-2.60
2018,02,19,00,28,-2.60
2018,02,19,00,29,-2.50
2018,02,19,00,30,-2.50
2018,02,19,00,31,-2.50
2018,02,19,00,32,-2.50
2018,02,19,00,33,-2.40
2018,02,19,00,34,-2.40
2018,02,19,00,35,-2.40
2018,02,19,00,36,-2.40
2018,02,19,00,37,-2.40
2018,02,19,00,38,-2.40
2018,02,19,00,39,-2.30
2018,02,19,00,40,-2.30
2018,02,19,00,41,-2.30
2018,02,19,00,42,-2.30
2018,02,19,00,43,-2.30
2018,02,19,00,44,-2.30
2018,02,19,00,45,-2.30
2018,02,19,00,46,-2.30
2018,02,19,00,47,-2.30
2018,02,19,00,48,-2.30
2018,02,19,00,49,-2.30
2018,02,19,00,50,-2.30
2018,02,19,00,51,-2.40
2018,02,19,00,52,-2.40
2018,02,19,00,53,-2.40
2018,02,19,00,54,-2.40
2018,02,19,00,55,-2.40
2018,02,19,00,56,-2.40
2018,02,19,00,57,-2.40
2018,02,19,00,58,-2.40
2018,02,19,00,59,-2.40
2018,02,19,01,00,-2.40
2018,02,19,01,01,-2.40
2018,02,19,01,02,-2.30
2018,02,19,01,03,-2.30
2018,02,19,01,04,-2.30
2018,02,19,01,05,-2.30
2018,02,19,01,06,-2.40
2018,02,19,01,07,-2.40
2018,02,19,01,08,-2.40
2018,02,19,01,09,-2.50
2018,02,19,01,10,-2.50
2018,02,19,01,11,-2.50
2018,02,19,01,12,-2.60
2018,02,19,01,13,-2.60
2018,02,19,01,14,-2.60
2018,02,19,01,15,-2.70
2018,02,19,01,16,-2.70
2018,02,19,01,17,-2.70
2018,02,19,01,18,-2.70
2018,02,19,01,19,-2.70
2018,02,19,01,20,-2.70
2018,02,19,01,21,-2.70
2018,02,19,01,22,-2.70
2018,02,19,01,23,-2.70
2018,02,19,01,24,-2.70
2018,02,19,01,25,-2.70
2018,02,19,01,26,-2.70
2018,02,19,01,27,-2.70
2018,02,19,01,28,-2.70
2018,02,19,01,29,-2.70
2018,02,19,01,30,-2.70
2018,02,19,01,31,-2.60
2018,02,19,01,32,-2.60
2018,02,19,01,33,-2.60
2018,02,19,01,34,-2.60
2018,02,19,01,35,-2.70
2018,02,19,01,36,-2.70
2018,02,19,01,37,-2.70
2018,02,19,01,38,-2.70
2018,02,19,01,39,-2.70
2018,02,19,01,40,-2.70
2018,02,19,01,41,-2.70
2018,02,19,01,42,-2.70
2018,02,19,01,43,-2.70
2018,02,19,01,44,-2.70
2018,02,19,01,45,-2.70
2018,02,19,01,46,-2.80
2018,02,19,01,47,-2.80
2018,02,19,01,48,-2.80
2018,02,19,01,49,-2.70
2018,02,19,01,50,-2.70
2018,02,19,01,51,-2.70
2018,02,19,01,52,-2.80
2018,02,19,01,53,-2.80
2018,02,19,01,54,-2.80
2018,02,19,01,55,-2.80
2018,02,19,01,56,-2.80
2018,02,19,01,57,-2.80
2018,02,19,01,58,-2.90
2018,02,19,01,59,-2.90
2018,02,19,02,00,-2.90
2018,02,19,02,01,-2.90
2018,02,19,02,02,-2.90
2018,02,19,02,03,-2.90
2018,02,19,02,04,-2.90
2018,02,19,02,05,-2.80
2018,02,19,02,06,-2.80
2018,02,19,02,07,-2.80
2018,02,19,02,08,-2.80
2018,02,19,02,09,-2.80
2018,02,19,02,10,-2.80
2018,02,19,02,11,-2.90
2018,02,19,02,12,-2.90
2018,02,19,02,13,-2.90
2018,02,19,02,14,-2.90
2018,02,19,02,15,-2.90
2018,02,19,02,16,-2.90
2018,02,19,02,17,-2.90
2018,02,19,02,18,-2.90
2018,02,19,02,19,-2.90
2018,02,19,02,20,-2.90
2018,02,19,02,21,-2.90
2018,02,19,02,22,-3.00
2018,02,19,02,23,-2.90
2018,02,19,02,24,-2.90
2018,02,19,02,25,-2.90
2018,02,19,02,26,-2.90
2018,02,19,02,27,-2.90
2018,02,19,02,28,-2.90
2018,02,19,02,29,-2.90
2018,02,19,02,30,-2.80
2018,02,19,02,31,-2.80
2018,02,19,02,32,-2.80
2018,02,19,02,33,-2.80
2018,02,19,02,34,-2.80
2018,02,19,02,35,-2.80
2018,02,19,02,36,-2.80
2018,02,19,02,37,-2.80
2018,02,19,02,38,-2.80
2018,02,19,02,39,-2.70
2018,02,19,02,40,-2.70
2018,02,19,02,41,-2.70
2018,02,19,02,42,-2.70
2018,02,19,02,43,-2.70
2018,02,19,02,44,-2.70
2018,02,19,02,45,-2.70
2018,02,19,02,46,-2.80
2018,02,19,02,47,-2.80
2018,02,19,02,48,-2.80
2018,02,19,02,49,-2.80
2018,02,19,02,50,-2.80
2018,02,19,02,51,-2.80
2018,02,19,02,52,-2.80
2018,02,19,02,53,-2.80
2018,02,19,02,54,-2.80
2018,02,19,02,55,-2.90
2018,02,19,02,56,-2.90
2018,02,19,02,57,-2.90
2018,02,19,02,58,-2.90
2018,02,19,02,59,-3.00
2018,02,19,03,00,-3.00
2018,02,19,03,01,-3.10
2018,02,19,03,02,-3.00
2018,02,19,03,03,-3.00
2018,02,19,03,04,-3.00
2018,02,19,03,05,-3.00
2018,02,19,03,06,-3.00
2018,02,19,03,07,-3.00
2018,02,19,03,08,-3.10
2018,02,19,03,09,-3.10
2018,02,19,03,10,-3.10
2018,02,19,03,11,-3.10
2018,02,19,03,12,-3.10
2018,02,19,03,13,-3.10
2018,02,19,03,14,-3.10
2018,02,19,03,15,-3.10
2018,02,19,03,16,-3.00
2018,02,19,03,17,-3.00
2018,02,19,03,18,-3.00
2018,02,19,03,19,-3.00
2018,02,19,03,20,-2.90
2018,02,19,03,21,-3.00
2018,02,19,03,22,-3.00
2018,02,19,03,23,-3.00
2018,02,19,03,24,-3.00
2018,02,19,03,25,-3.00
2018,02,19,03,26,-3.00
2018,02,19,03,27,-3.10
2018,02,19,03,28,-3.10
2018,02,19,03,29,-3.10
2018,02,19,03,30,-3.10
2018,02,19,03,31,-3.10
2018,02,19,03,32,-3.10
2018,02,19,03,33,-3.10
2018,02,19,03,34,-3.10
2018,02,19,03,35,-3.10
2018,02,19,03,36,-3.20
2018,02,19,03,37,-3.20
2018,02,19,03,38,-3.20
2018,02,19,03,39,-3.20
2018,02,19,03,40,-3.20
2018,02,19,03,41,-3.20
2018,02,19,03,42,-3.20
2018,02,19,03,43,-3.20
2018,02,19,03,44,-3.20
2018,02,19,03,45,-3.20
2018,02,19,03,46,-3.20
2018,02,19,03,47,-3.20
2018,02,19,03,48,-3.20
2018,02,19,03,49,-3.20
2018,02,19,03,50,-3.20
2018,02,19,03,51,-3.20
2018,02,19,03,52,-3.20
2018,02,19,03,53,-3.20
2018,02,19,03,54,-3.20
2018,02,19,03,55,-3.20
2018,02,19,03,56,-3.20
2018,02,19,03,57,-3.10
2018,02,19,03,58,-3.10
2018,02,19,03,59,-3.10
2018,02,19,04,00,-3.10
2018,02,19,04,01,-3.10
2018,02,19,04,02,-3.10
2018,02,19,04,03,-3.10
2018,02,19,04,04,-3.10
2018,02,19,04,05,-3.10
2018,02,19,04,06,-3.10
2018,02,19,04,07,-3.20
2018,02,19,04,08,-3.20
2018,02,19,04,09,-3.20
2018,02,19,04,10,-3.30
2018,02,19,04,11,-3.40
2018,02,19,04,12,-3.50
2018,02,19,04,13,-3.60
2018,02,19,04,14,-3.70
2018,02,19,04,15,-3.80
2018,02,19,04,16,-3.90
2018,02,19,04,17,-3.90
2018,02,19,04,18,-3.90
2018,02,19,04,19,-3.90
2018,02,19,04,20,-3.90
2018,02,19,04,21,-3.90
2018,02,19,04,22,-3.90
2018,02,19,04,23,-3.90
2018,02,19,04,24,-3.90
2018,02,19,04,25,-3.90
2018,02,19,04,26,-4.00
2018,02,19,04,27,-4.00
2018,02,19,04,28,-4.10
2018,02,19,04,29,-4.10
2018,02,19,04,30,-4.20
2018,02,19,04,31,-4.20
2018,02,19,04,32,-4.30
2018,02,19,04,33,-4.40
2018,02,19,04,34,-4.40
2018,02,19,04,35,-4.40
2018,02,19,04,36,-4.50
2018,02,19,04,37,-4.50
2018,02,19,04,38,-4.60
2018,02,19,04,39,-4.60
2018,02,19,04,40,-4.60
2018,02,19,04,41,-4.70
2018,02,19,04,42,-4.70
2018,02,19,04,43,-4.70
2018,02,19,04,44,-4.80
2018,02,19,04,45,-4.80
2018,02,19,04,46,-4.80
2018,02,19,04,47,-4.90
2018,02,19,04,48,-4.90
2018,02,19,04,49,-4.90
2018,02,19,04,50,-4.90
2018,02,19,04,51,-4.80
2018,02,19,04,52,-4.70
2018,02,19,04,53,-4.60
2018,02,19,04,54,-4.60
2018,02,19,04,55,-4.50
2018,02,19,04,56,-4.50
2018,02,19,04,57,-4.60
2018,02,19,04,58,-4.70
2018,02,19,04,59,-4.80
2018,02,19,05,00,-4.90
2018,02,19,05,01,-4.90
2018,02,19,05,02,-5.00
2018,02,19,05,03,-5.10
2018,02,19,05,04,-5.20
2018,02,19,05,05,-5.20
2018,02,19,05,06,-5.20
2018,02,19,05,07,-5.30
2018,02,19,05,08,-5.30
2018,02,19,05,09,-5.30
2018,02,19,05,10,-5.30
2018,02,19,05,11,-5.40
2018,02,19,05,12,-5.40
2018,02,19,05,13,-5.40
2018,02,19,05,14,-5.40
2018,02,19,05,15,-5.50
2018,02,19,05,16,-5.50
2018,02,19,05,17,-5.50
2018,02,19,05,18,-5.50
2018,02,19,05,19,-5.60
2018,02,19,05,20,-5.60
2018,02,19,05,21,-5.60
2018,02,19,05,22,-5.60
2018,02,19,05,23,-5.60
2018,02,19,05,24,-5.60
2018,02,19,05,25,-5.60
2018,02,19,05,26,-5.70
2018,02,19,05,27,-5.70
2018,02,19,05,28,-5.70
2018,02,19,05,29,-5.70
2018,02,19,05,30,-5.70
2018,02,19,05,31,-5.70
2018,02,19,05,32,-5.70
2018,02,19,05,33,-5.70
2018,02,19,05,34,-5.70
2018,02,19,05,35,-5.80
2018,02,19,05,36,-5.80
2018,02,19,05,37,-5.80
2018,02,19,05,38,-5.80
2018,02,19,05,39,-5.80
2018,02,19,05,40,-5.80
2018,02,19,05,41,-5.80
2018,02,19,05,42,-5.80
2018,02,19,05,43,-5.80
2018,02,19,05,44,-5.80
2018,02,19,05,45,-5.80
2018,02,19,05,46,-5.80
2018,02,19,05,47,-5.80
2018,02,19,05,48,-5.80
2018,02,19,05,49,-5.80
2018,02,19,05,50,-5.90
2018,02,19,05,51,-5.90
2018,02,19,05,52,-5.90
2018,02,19,05,53,-5.90
2018,02,19,05,54,-5.90
2018,02,19,05,55,-5.90
2018,02,19,05,56,-5.90
2018,02,19,05,57,-5.90
2018,02,19,05,58,-5.90
2018,02,19,05,59,-5.90
2018,02,19,06,00,-5.90
2018,02,19,06,01,-5.90
2018,02,19,06,02,-5.90
2018,02,19,06,03,-6.00
2018,02,19,06,04,-6.00
2018,02,19,06,05,-6.00
2018,02,19,06,06,-6.00
2018,02,19,06,07,-6.00
2018,02,19,06,08,-6.10
2018,02,19,06,09,-6.10
2018,02,19,06,10,-6.10
2018,02,19,06,11,-6.10
2018,02,19,06,12,-6.10
2018,02,19,06,13,-6.20
2018,02,19,06,14,-6.20
2018,02,19,06,15,-6.20
2018,02,19,06,16,-6.20
2018,02,19,06,17,-6.20
2018,02,19,06,18,-6.20
2018,02,19,06,19,-6.20
2018,02,19,06,20,-6.20
2018,02,19,06,21,-6.20
2018,02,19,06,22,-6.20
2018,02,19,06,23,-6.30
2018,02,19,06,24,-6.30
2018,02,19,06,25,-6.30
2018,02,19,06,26,-6.30
2018,02,19,06,27,-6.30
2018,02,19,06,28,-6.30
2018,02,19,06,29,-6.20
2018,02,19,06,30,-6.20
2018,02,19,06,31,-6.20
2018,02,19,06,32,-6.20
2018,02,19,06,33,-6.20
2018,02,19,06,34,-6.20
2018,02,19,06,35,-6.20
2018,02,19,06,36,-6.30
2018,02,19,06,37,-6.30
2018,02,19,06,38,-6.30
2018,02,19,06,39,-6.30
2018,02,19,06,40,-6.30
2018,02,19,06,41,-6.30
2018,02,19,06,42,-6.30
2018,02,19,06,43,-6.30
2018,02,19,06,44,-6.30
2018,02,19,06,45,-6.30
2018,02,19,06,46,-6.30
2018,02,19,06,47,-6.30
2018,02,19,06,48,-6.30
2018,02,19,06,49,-6.30
2018,02,19,06,50,-6.30
2018,02,19,06,51,-6.30
2018,02,19,06,52,-6.30
2018,02,19,06,53,-6.30
2018,02,19,06,54,-6.30
2018,02,19,06,55,-6.30
2018,02,19,06,56,-6.30
2018,02,19,06,57,-6.30
2018,02,19,06,58,-6.30
2018,02,19,06,59,-6.30
2018,02,19,07,00,-6.30
2018,02,19,07,01,-6.30
2018,02,19,07,02,-6.30
2018,02,19,07,03,-6.30
2018,02,19,07,04,-6.30
2018,02,19,07,05,-6.30
2018,02,19,07,06,-6.30
2018,02,19,07,07,-6.30
2018,02,19,07,08,-6.30
2018,02,19,07,09,-6.40
2018,02,19,07,10,-6.40
2018,02,19,07,11,-6.40
2018,02,19,07,12,-6.40
2018,02,19,07,13,-6.40
2018,02,19,07,14,-6.40
2018,02,19,07,15,-6.40
2018,02,19,07,16,-6.40
2018,02,19,07,17,-6.30
2018,02,19,07,18,-6.30
2018,02,19,07,19,-6.30
2018,02,19,07,20,-6.30
2018,02,19,07,21,-6.30
2018,02,19,07,22,-6.30
2018,02,19,07,23,-6.30
2018,02,19,07,24,-6.40
2018,02,19,07,25,-6.40
2018,02,19,07,26,-6.40
2018,02,19,07,27,-6.40
2018,02,19,07,28,-6.40
2018,02,19,07,29,-6.40
2018,02,19,07,30,-6.40
2018,02,19,07,31,-6.40
2018,02,19,07,32,-6.40
2018,02,19,07,33,-6.40
2018,02,19,07,34,-6.40
2018,02,19,07,35,-6.40
2018,02,19,07,36,-6.40
2018,02,19,07,37,-6.40
2018,02,19,07,38,-6.40
2018,02,19,07,39,-6.40
2018,02,19,07,40,-6.40
2018,02,19,07,41,-6.30
2018,02,19,07,42,-6.30
2018,02,19,07,43,-6.30
2018,02,19,07,44,-6.30
2018,02,19,07,45,-6.30
2018,02,19,07,46,-6.30
2018,02,19,07,47,-6.30
2018,02,19,07,48,-6.30
2018,02,19,07,49,-6.30
2018,02,19,07,50,-6.30
2018,02,19,07,51,-6.30
2018,02,19,07,52,-6.30
2018,02,19,07,53,-6.30
2018,02,19,07,54,-6.30
2018,02,19,07,55,-6.30
2018,02,19,07,56,-6.30
2018,02,19,07,57,-6.30
2018,02,19,07,58,-6.30
2018,02,19,07,59,-6.30
2018,02,19,08,00,-6.30
2018,02,19,08,01,-6.30
2018,02,19,08,02,-6.30
2018,02,19,08,03,-6.30
2018,02,19,08,04,-6.30
2018,02,19,08,05,-6.30
2018,02,19,08,06,-6.30
2018,02,19,08,07,-6.30
2018,02,19,08,08,-6.30
2018,02,19,08,09,-6.30
2018,02,19,08,10,-6.30
2018,02,19,08,11,-6.30
2018,02,19,08,12,-6.30
2018,02,19,08,13,-6.20
2018,02,19,08,14,-6.20
2018,02,19,08,15,-6.20
2018,02,19,08,16,-6.30
2018,02,19,08,17,-6.30
2018,02,19,08,18,-6.30
2018,02,19,08,19,-6.30
2018,02,19,08,20,-6.30
2018,02,19,08,21,-6.30
2018,02,19,08,22,-6.30
2018,02,19,08,23,-6.30
2018,02,19,08,24,-6.30
2018,02,19,08,25,-6.30
2018,02,19,08,26,-6.30
2018,02,19,08,27,-6.30
2018,02,19,08,28,-6.30
2018,02,19,08,29,-6.30
2018,02,19,08,30,-6.30
2018,02,19,08,31,-6.20
2018,02,19,08,32,-6.20
2018,02,19,08,33,-6.20
2018,02,19,08,34,-6.20
2018,02,19,08,35,-6.20
2018,02,19,08,36,-6.20
2018,02,19,08,37,-6.20
2018,02,19,08,38,-6.10
2018,02,19,08,39,-6.10
2018,02,19,08,40,-6.10
2018,02,19,08,41,-6.00
2018,02,19,08,42,-6.00
2018,02,19,08,43,-5.90
2018,02,19,08,44,-5.80
2018,02,19,08,45,-5.80
2018,02,19,08,46,-5.70
2018,02,19,08,47,-5.70
2018,02,19,08,48,-5.60
2018,02,19,08,49,-5.50
2018,02,19,08,50,-5.50
2018,02,19,08,51,-5.40
2018,02,19,08,52,-5.40
2018,02,19,08,53,-5.30
2018,02,19,08,54,-5.30
2018,02,19,08,55,-5.20
2018,02,19,08,56,-5.10
2018,02,19,08,57,-5.10
2018,02,19,08,58,-5.00
2018,02,19,08,59,-4.90
2018,02,19,09,00,-4.80
2018,02,19,09,01,-4.70
2018,02,19,09,02,-4.60
2018,02,19,09,03,-4.50
2018,02,19,09,04,-4.40
2018,02,19,09,05,-4.30
2018,02,19,09,06,-4.30
2018,02,19,09,07,-4.20
2018,02,19,09,08,-4.10
2018,02,19,09,09,-4.10
2018,02,19,09,10,-4.10
2018,02,19,09,11,-4.00
2018,02,19,09,12,-3.90
2018,02,19,09,13,-3.90
2018,02,19,09,14,-3.90
2018,02,19,09,15,-3.80
2018,02,19,09,16,-3.80
2018,02,19,09,17,-3.70
2018,02,19,09,18,-3.70
2018,02,19,09,19,-3.70
2018,02,19,09,20,-3.70
2018,02,19,09,21,-3.70
2018,02,19,09,22,-3.70
2018,02,19,09,23,-3.60
2018,02,19,09,24,-3.60
2018,02,19,09,25,-3.60
2018,02,19,09,26,-3.50
2018,02,19,09,27,-3.50
2018,02,19,09,28,-3.50
2018,02,19,09,29,-3.40
2018,02,19,09,30,-3.40
2018,02,19,09,31,-3.40
2018,02,19,09,32,-3.30
2018,02,19,09,33,-3.30
2018,02,19,09,34,-3.20
2018,02,19,09,35,-3.20
2018,02,19,09,36,-3.20
2018,02,19,09,37,-3.10
2018,02,19,09,38,-3.10
2018,02,19,09,39,-3.00
2018,02,19,09,40,-3.00
2018,02,19,09,41,-2.90
2018,02,19,09,42,-2.90
2018,02,19,09,43,-2.80
2018,02,19,09,44,-2.80
2018,02,19,09,45,-2.80
2018,02,19,09,46,-2.80
2018,02,19,09,47,-2.80
2018,02,19,09,48,-2.70
2018,02,19,09,49,-2.70
2018,02,19,09,50,-2.60
2018,02,19,09,51,-2.60
2018,02,19,09,52,-2.60
2018,02,19,09,53,-2.60
2018,02,19,09,54,-2.50
2018,02,19,09,55,-2.50
2018,02,19,09,56,-2.50
2018,02,19,09,57,-2.40
2018,02,19,09,58,-2.40
2018,02,19,09,59,-2.40
2018,02,19,10,00,-2.30
2018,02,19,10,01,-2.30
2018,02,19,10,02,-2.30
2018,02,19,10,03,-2.20
2018,02,19,10,04,-2.20
2018,02,19,10,05,-2.10
2018,02,19,10,06,-2.10
2018,02,19,10,07,-2.10
2018,02,19,10,08,-2.00
2018,02,19,10,09,-2.00
2018,02,19,10,10,-1.90
2018,02,19,10,11,-1.90
2018,02,19,10,12,-1.80
2018,02,19,10,13,-1.80
2018,02,19,10,14,-1.70
2018,02,19,10,15,-1.60
2018,02,19,10,16,-1.60
2018,02,19,10,17,-1.50
2018,02,19,10,18,-1.40
2018,02,19,10,19,-1.40
2018,02,19,10,20,-1.40
2018,02,19,10,21,-1.40
2018,02,19,10,22,-1.40
2018,02,19,10,23,-1.40
2018,02,19,10,24,-1.40
2018,02,19,10,25,-1.40
2018,02,19,10,26,-1.30
2018,02,19,10,27,-1.30
2018,02,19,10,28,-1.30
2018,02,19,10,29,-1.30
2018,02,19,10,30,-1.20
2018,02,19,10,31,-1.20
2018,02,19,10,32,-1.20
2018,02,19,10,33,-1.10
2018,02,19,10,34,-1.00
2018,02,19,10,35,-0.90
2018,02,19,10,36,-0.80
2018,02,19,10,37,-0.70
2018,02,19,10,38,-0.60
2018,02,19,10,39,-0.50
2018,02,19,10,40,-0.40
2018,02,19,10,41,-0.30
2018,02,19,10,42,-0.30
2018,02,19,10,43,-0.20
2018,02,19,10,44,-0.20
2018,02,19,10,45,-0.20
2018,02,19,10,46,-0.20
2018,02,19,10,47,-0.10
2018,02,19,10,48,-0.10
2018,02,19,10,49,-0.10
2018,02,19,10,50,-0.10
2018,02,19,10,51,-0.10
2018,02,19,10,52,-0.10
2018,02,19,10,53,-0.10
2018,02,19,10,54,0.00
2018,02,19,10,55,0.00
2018,02,19,10,56,0.10
2018,02,19,10,57,0.00
2018,02,19,10,58,0.00
2018,02,19,10,59,0.00
2018,02,19,11,00,0.00
2018,02,19,11,01,0.10
2018,02,19,11,02,0.10
2018,02,19,11,03,0.10
2018,02,19,11,04,0.20
2018,02,19,11,05,0.20
2018,02,19,11,06,0.30
2018,02,19,11,07,0.30
2018,02,19,11,08,0.30
2018,02,19,11,09,0.30
2018,02,19,11,10,0.30
2018,02,19,11,11,0.30
2018,02,19,11,12,0.30
2018,02,19,11,13,0.30
2018,02,19,11,14,0.30
2018,02,19,11,15,0.30
2018,02,19,11,16,0.30
2018,02,19,11,17,0.30
2018,02,19,11,18,0.30
2018,02,19,11,19,0.30
2018,02,19,11,20,0.20
2018,02,19,11,21,0.20
2018,02,19,11,22,0.20
2018,02,19,11,23,0.20
2018,02,19,11,24,0.20
2018,02,19,11,25,0.10
2018,02,19,11,26,0.10
2018,02,19,11,27,0.10
2018,02,19,11,28,0.10
2018,02,19,11,29,0.10
2018,02,19,11,30,0.10
2018,02,19,11,31,0.20
2018,02,19,11,32,0.10
2018,02,19,11,33,0.10
2018,02,19,11,34,0.10
2018,02,19,11,35,0.10
2018,02,19,11,36,0.00
2018,02,19,11,37,0.00
2018,02,19,11,38,0.00
2018,02,19,11,39,0.00
2018,02,19,11,40,0.00
2018,02,19,11,41,0.00
2018,02,19,11,42,0.10
2018,02,19,11,43,0.10
2018,02,19,11,44,0.10
2018,02,19,11,45,0.10
2018,02,19,11,46,0.20
2018,02,19,11,47,0.20
2018,02,19,11,48,0.20
2018,02,19,11,49,0.20
2018,02,19,11,50,0.20
2018,02,19,11,51,0.20
2018,02,19,11,52,0.20
2018,02,19,11,53,0.20
2018,02,19,11,54,0.20
2018,02,19,11,55,0.20
2018,02,19,11,56,0.20
2018,02,19,11,57,0.20
2018,02,19,11,58,0.20
2018,02,19,11,59,0.20
2018,02,19,12,00,0.30
2018,02,19,12,01,0.30
2018,02,19,12,02,0.30
2018,02,19,12,03,0.30
2018,02,19,12,04,0.30
2018,02,19,12,05,0.30
2018,02,19,12,06,0.30
2018,02,19,12,07,0.40
2018,02,19,12,08,0.40
2018,02,19,12,09,0.40
2018,02,19,12,10,0.40
2018,02,19,12,11,0.40
2018,02,19,12,12,0.40
2018,02,19,12,13,0.40
2018,02,19,12,14,0.40
2018,02,19,12,15,0.40
2018,02,19,12,16,0.40
2018,02,19,12,17,0.40
2018,02,19,12,18,0.40
2018,02,19,12,19,0.50
2018,02,19,12,20,0.50
2018,02,19,12,21,0.50
2018,02,19,12,22,0.50
2018,02,19,12,23,0.50
2018,02,19,12,24,0.50
2018,02,19,12,25,0.50
2018,02,19,12,26,0.50
2018,02,19,12,27,0.50
2018,02,19,12,28,0.50
2018,02,19,12,29,0.50
2018,02,19,12,30,0.50
2018,02,19,12,31,0.50
2018,02,19,12,32,0.50
2018,02,19,12,33,0.40
2018,02,19,12,34,0.40
2018,02,19,12,35,0.40
2018,02,19,12,36,0.40
2018,02,19,12,37,0.40
2018,02,19,12,38,0.40
2018,02,19,12,39,0.40
2018,02,19,12,40,0.40
2018,02,19,12,41,0.40
2018,02,19,12,42,0.50
2018,02,19,12,43,0.50
2018,02,19,12,44,0.50
2018,02,19,12,45,0.50
2018,02,19,12,46,0.50
2018,02,19,12,47,0.50
2018,02,19,12,48,0.50
2018,02,19,12,49,0.50
2018,02,19,12,50,0.50
2018,02,19,12,51,0.60
2018,02,19,12,52,0.60
2018,02,19,12,53,0.60
2018,02,19,12,54,0.60
2018,02,19,12,55,0.70
2018,02,19,12,56,0.70
2018,02,19,12,57,0.70
2018,02,19,12,58,0.80
2018,02,19,12,59,0.80
2018,02,19,13,00,0.80
2018,02,19,13,01,0.80
2018,02,19,13,02,0.80
2018,02,19,13,03,0.80
2018,02,19,13,04,0.80
2018,02,19,13,05,0.80
2018,02,19,13,06,0.80
2018,02,19,13,07,0.80
2018,02,19,13,08,0.80
2018,02,19,13,09,0.80
2018,02,19,13,10,0.70
2018,02,19,13,11,0.70
2018,02,19,13,12,0.70
2018,02,19,13,13,0.70
2018,02,19,13,14,0.70
2018,02,19,13,15,0.70
2018,02,19,13,16,0.70
2018,02,19,13,17,0.70
2018,02,19,13,18,0.70
2018,02,19,13,19,0.80
2018,02,19,13,20,0.80
2018,02,19,13,21,0.80
2018,02,19,13,22,0.80
2018,02,19,13,23,0.80
2018,02,19,13,24,0.90
2018,02,19,13,25,0.90
2018,02,19,13,26,0.90
2018,02,19,13,27,0.90
2018,02,19,13,28,0.90
2018,02,19,13,29,0.90
2018,02,19,13,30,0.90
2018,02,19,13,31,1.00
2018,02,19,13,32,1.00
2018,02,19,13,33,1.00
2018,02,19,13,34,0.90
2018,02,19,13,35,0.90
2018,02,19,13,36,0.90
2018,02,19,13,37,0.90
2018,02,19,13,38,0.90
2018,02,19,13,39,0.90
2018,02,19,13,40,0.90
2018,02,19,13,41,0.90
2018,02,19,13,42,0.90
2018,02,19,13,43,0.90
2018,02,19,13,44,0.80
2018,02,19,13,45,0.80
2018,02,19,13,46,0.80
2018,02,19,13,47,0.90
2018,02,19,13,48,0.90
2018,02,19,13,49,0.90
2018,02,19,13,50,0.90
2018,02,19,13,51,1.00
2018,02,19,13,52,1.00
2018,02,19,13,53,1.10
2018,02,19,13,54,1.10
2018,02,19,13,55,1.10
2018,02,19,13,56,1.10
2018,02,19,13,57,1.10
2018,02,19,13,58,1.10
2018,02,19,13,59,1.10
2018,02,19,14,00,1.10
2018,02,19,14,01,1.10
2018,02,19,14,02,1.10
2018,02,19,14,03,1.10
2018,02,19,14,04,1.10
2018,02,19,14,05,1.10
2018,02,19,14,06,1.10
2018,02,19,14,07,1.00
2018,02,19,14,08,1.00
2018,02,19,14,09,1.00
2018,02,19,14,10,1.00
2018,02,19,14,11,1.10
2018,02,19,14,12,1.10
2018,02,19,14,13,1.10
2018,02,19,14,14,1.10
2018,02,19,14,15,1.10
2018,02,19,14,16,1.10
2018,02,19,14,17,1.10
2018,02,19,14,18,1.10
2018,02,19,14,19,1.10
2018,02,19,14,20,1.10
2018,02,19,14,21,1.20
2018,02,19,14,22,1.20
2018,02,19,14,23,1.20
2018,02,19,14,24,1.20
2018,02,19,14,25,1.20
2018,02,19,14,26,1.30
2018,02,19,14,27,1.30
2018,02,19,14,28,1.30
2018,02,19,14,29,1.20
2018,02,19,14,30,1.30
2018,02,19,14,31,1.20
2018,02,19,14,32,1.20
2018,02,19,14,33,1.20
2018,02,19,14,34,1.20
2018,02,19,14,35,1.20
2018,02,19,14,36,1.20
2018,02,19,14,37,1.20
2018,02,19,14,38,1.20
2018,02,19,14,39,1.20
2018,02,19,14,40,1.20
2018,02,19,14,41,1.20
2018,02,19,14,42,1.20
2018,02,19,14,43,1.20
2018,02,19,14,44,1.30
2018,02,19,14,45,1.30
2018,02,19,14,46,1.30
2018,02,19,14,47,1.30
2018,02,19,14,48,1.30
2018,02,19,14,49,1.30
2018,02,19,14,50,1.30
2018,02,19,14,51,1.30
2018,02,19,14,52,1.30
2018,02,19,14,53,1.30
2018,02,19,14,54,1.30
2018,02,19,14,55,1.30
2018,02,19,14,56,1.20
2018,02,19,14,57,1.20
2018,02,19,14,58,1.20
2018,02,19,14,59,1.20
2018,02,19,15,00,1.20
2018,02,19,15,01,1.20
2018,02,19,15,02,1.20
2018,02,19,15,03,1.20
2018,02,19,15,04,1.20
2018,02,19,15,05,1.20
2018,02,19,15,06,1.20
2018,02,19,15,07,1.20
2018,02,19,15,08,1.20
2018,02,19,15,09,1.20
2018,02,19,15,10,1.20
2018,02,19,15,11,1.20
2018,02,19,15,12,1.20
2018,02,19,15,13,1.20
2018,02,19,15,14,1.20
2018,02,19,15,15,1.20
2018,02,19,15,16,1.20
2018,02,19,15,17,1.20
2018,02,19,15,18,1.20
2018,02,19,15,19,1.20
2018,02,19,15,20,1.20
2018,02,19,15,21,1.20
2018,02,19,15,22,1.20
2018,02,19,15,23,1.20
2018,02,19,15,24,1.20
2018,02,19,15,25,1.30
2018,02,19,15,26,1.30
2018,02,19,15,27,1.30
2018,02,19,15,28,1.30
2018,02,19,15,29,1.30
2018,02,19,15,30,1.30
2018,02,19,15,31,1.30
2018,02,19,15,32,1.30
2018,02,19,15,33,1.30
2018,02,19,15,34,1.30
2018,02,19,15,35,1.30
2018,02,19,15,36,1.30
2018,02,19,15,37,1.30
2018,02,19,15,38,1.30
2018,02,19,15,39,1.30
2018,02,19,15,40,1.40
2018,02,19,15,41,1.40
2018,02,19,15,42,1.40
2018,02,19,15,43,1.40
2018,02,19,15,44,1.40
2018,02,19,15,45,1.40
2018,02,19,15,46,1.40
2018,02,19,15,47,1.40
2018,02,19,15,48,1.40
2018,02,19,15,49,1.40
2018,02,19,15,50,1.40
2018,02,19,15,51,1.40
2018,02,19,15,52,1.40
2018,02,19,15,53,1.30
2018,02,19,15,54,1.30
2018,02,19,15,55,1.30
2018,02,19,15,56,1.30
2018,02,19,15,57,1.30
2018,02,19,15,58,1.30
2018,02,19,15,59,1.30
2018,02,19,16,00,1.30
2018,02,19,16,01,1.30
2018,02,19,16,02,1.30
2018,02,19,16,03,1.30
2018,02,19,16,04,1.30
2018,02,19,16,05,1.30
2018,02,19,16,06,1.30
2018,02,19,16,07,1.30
2018,02,19,16,08,1.30
2018,02,19,16,09,1.30
2018,02,19,16,10,1.30
2018,02,19,16,11,1.30
2018,02,19,16,12,1.20
2018,02,19,16,13,1.20
2018,02,19,16,14,1.20
2018,02,19,16,15,1.20
2018,02,19,16,16,1.20
2018,02,19,16,17,1.20
2018,02,19,16,18,1.20
2018,02,19,16,19,1.20
2018,02,19,16,20,1.20
2018,02,19,16,21,1.20
2018,02,19,16,22,1.20
2018,02,19,16,23,1.20
2018,02,19,16,24,1.20
2018,02,19,16,25,1.20
2018,02,19,16,26,1.20
2018,02,19,16,27,1.20
2018,02,19,16,28,1.20
2018,02,19,16,29,1.20
2018,02,19,16,30,1.20
2018,02,19,16,31,1.20
2018,02,19,16,32,1.20
2018,02,19,16,33,1.20
2018,02,19,16,34,1.20
2018,02,19,16,35,1.20
2018,02,19,16,36,1.20
2018,02,19,16,37,1.20
2018,02,19,16,38,1.20
2018,02,19,16,39,1.20
2018,02,19,16,40,1.20
2018,02,19,16,41,1.20
2018,02,19,16,42,1.20
2018,02,19,16,43,1.20
2018,02,19,16,44,1.20
2018,02,19,16,45,1.20
2018,02,19,16,46,1.20
2018,02,19,16,47,1.20
2018,02,19,16,48,1.20
2018,02,19,16,49,1.20
2018,02,19,16,50,1.20
2018,02,19,16,51,1.20
2018,02,19,16,52,1.20
2018,02,19,16,53,1.20
2018,02,19,16,54,1.20
2018,02,19,16,55,1.20
2018,02,19,16,56,1.20
2018,02,19,16,57,1.20
2018,02,19,16,58,1.20
2018,02,19,16,59,1.20
2018,02,19,17,00,1.20
2018,02,19,17,01,1.20
2018,02,19,17,02,1.20
2018,02,19,17,03,1.20
2018,02,19,17,04,1.10
2018,02,19,17,05,1.10
2018,02,19,17,06,1.10
2018,02,19,17,07,1.10
2018,02,19,17,08,1.10
2018,02,19,17,09,1.10
2018,02,19,17,10,1.10
2018,02,19,17,11,1.10
2018,02,19,17,12,1.10
2018,02,19,17,13,1.00
2018,02,19,17,14,1.00
2018,02,19,17,15,0.90
2018,02,19,17,16,0.90
2018,02,19,17,17,0.90
2018,02,19,17,18,0.90
2018,02,19,17,19,0.80
2018,02,19,17,20,0.80
2018,02,19,17,21,0.80
2018,02,19,17,22,0.70
2018,02,19,17,23,0.70
2018,02,19,17,24,0.70
2018,02,19,17,25,0.60
2018,02,19,17,26,0.60
2018,02,19,17,27,0.60
2018,02,19,17,28,0.50
2018,02,19,17,29,0.40
2018,02,19,17,30,0.40
2018,02,19,17,31,0.30
2018,02,19,17,32,0.30
2018,02,19,17,33,0.30
2018,02,19,17,34,0.20
2018,02,19,17,35,0.20
2018,02,19,17,36,0.20
2018,02,19,17,37,0.10